Location: Madrid
(40.4000°N, 3.6830°W)
Time: 19:52:17
(UTC+01:00)

ISS - Visible Passes

Search period start: 21 January 2021 00:00
Search period end: 31 January 2021 00:00
Orbit: 418 x 421 km, 51.6° (Epoch: 22 January)

Date Brightness Start Highest point End Pass type
(mag) Time Alt. Az. Time Alt. Az. Time Alt. Az.
21 Jan -3.2 19:27:03 10° WSW 19:30:22 53° NNW 19:32:26 21° NE visible
22 Jan -1.6 20:17:41 10° WNW 20:20:06 19° NNW 20:20:06 19° NNW visible
23 Jan -2.0 19:29:48 10° W 19:32:38 24° NNW 19:34:44 14° NNE visible
24 Jan -1.1 20:20:55 10° NW 20:22:18 13° NNW 20:22:18 13° NNW visible
25 Jan -1.4 19:32:56 10° NW 19:35:04 16° NNW 19:36:51 11° NNE visible
26 Jan -1.0 20:23:46 10° NNW 20:24:22 11° NNW 20:24:22 11° NNW visible
27 Jan -1.3 19:36:01 10° NNW 19:37:34 12° N 19:38:53 11° NNE visible
28 Jan -1.0 20:25:47 10° NNW 20:26:23 12° NNW 20:26:23 12° NNW visible
29 Jan -1.5 19:38:24 10° NNW 19:40:04 13° N 19:40:56 12° NNE visible
30 Jan -1.4 20:27:23 10° NNW 20:28:29 16° NNW 20:28:29 16° NNW visible
